• In Russia
  • List of Countries
  • For 7 days
  • Water Temperature
  • Satellite Maps
  • Weather Map
  • Weather Widgets
  • user-avatar
    Login

    Hourly Weather Khulna

    Today, 19 May, Sunday

    Time Temperature Precipitation Wind Pressure Humidity
    00:00 +32°C° 0 mm 4 mps 753 mmHg 82%
    01:00 +32°C° 0 mm 4 mps 753 mmHg 81%
    02:00 +33°C° 0 mm 4 mps 753 mmHg 80%
    03:00 +33°C° 0 mm 4 mps 752 mmHg 79%
    04:00 +33°C° 0 mm 4 mps 753 mmHg 80%
    05:00 +32°C° 0 mm 4 mps 753 mmHg 80%
    06:00 +33°C° 0 mm 3 mps 753 mmHg 79%
    07:00 +34°C° 0 mm 3 mps 754 mmHg 74%
    08:00 +35°C° 0 mm 4 mps 754 mmHg 69%
    09:00 +36°C° 0 mm 4 mps 754 mmHg 64%
    10:00 +38°C° 0 mm 4 mps 754 mmHg 56%
    11:00 +41°C° 0 mm 4 mps 754 mmHg 48%
    12:00 +43°C° 0 mm 3 mps 754 mmHg 40%
    13:00 +43°C° 0 mm 3 mps 753 mmHg 40%
    14:00 +42°C° 0 mm 3 mps 753 mmHg 41%
    15:00 +42°C° 0 mm 4 mps 752 mmHg 42%
    16:00 +40°C° 1.5 mm 4 mps 752 mmHg 49%
    17:00 +39°C° 1.5 mm 5 mps 751 mmHg 57%
    18:00 +36°C° 1.5 mm 6 mps 751 mmHg 64%
    19:00 +35°C° 0.9 mm 5 mps 752 mmHg 68%
    20:00 +34°C° 0.9 mm 5 mps 753 mmHg 72%
    21:00 +33°C° 0.9 mm 5 mps 754 mmHg 76%
    22:00 +33°C° 0 mm 5 mps 754 mmHg 78%
    23:00 +32°C° 0 mm 4 mps 754 mmHg 80%

    Tomorrow, 20 May, Monday

    Time Temperature Precipitation Wind Pressure Humidity
    00:00 +32°C° 0 mm 4 mps 754 mmHg 83%
    01:00 +32°C° 0 mm 4 mps 754 mmHg 84%
    02:00 +32°C° 0 mm 4 mps 753 mmHg 86%
    03:00 +30°C° 0 mm 4 mps 753 mmHg 88%
    04:00 +30°C° 0 mm 3 mps 753 mmHg 87%
    05:00 +30°C° 0 mm 3 mps 754 mmHg 87%
    06:00 +30°C° 0 mm 2 mps 754 mmHg 86%
    07:00 +32°C° 0 mm 2 mps 754 mmHg 77%
    08:00 +35°C° 0 mm 3 mps 755 mmHg 67%
    09:00 +37°C° 0 mm 3 mps 755 mmHg 58%
    10:00 +39°C° 0 mm 3 mps 755 mmHg 49%
    11:00 +42°C° 0 mm 3 mps 754 mmHg 41%
    12:00 +44°C° 0 mm 3 mps 754 mmHg 32%
    13:00 +45°C° 0 mm 3 mps 753 mmHg 30%
    14:00 +45°C° 0 mm 4 mps 753 mmHg 27%
    15:00 +47°C° 0 mm 4 mps 752 mmHg 24%
    16:00 +44°C° 0 mm 4 mps 752 mmHg 31%
    17:00 +42°C° 0 mm 5 mps 751 mmHg 38%
    18:00 +40°C° 0 mm 5 mps 751 mmHg 44%
    19:00 +37°C° 0 mm 5 mps 751 mmHg 52%
    20:00 +36°C° 0 mm 5 mps 752 mmHg 59%
    21:00 +34°C° 0 mm 5 mps 752 mmHg 66%
    22:00 +34°C° 0 mm 5 mps 752 mmHg 70%
    23:00 +33°C° 0 mm 4 mps 752 mmHg 73%

    Day after tomorrow, 21 May, Tuesday

    Time Temperature Precipitation Wind Pressure Humidity
    00:00 +33°C° 0 mm 4 mps 752 mmHg 76%
    01:00 +32°C° 0 mm 4 mps 752 mmHg 77%
    02:00 +31°C° 0 mm 3 mps 752 mmHg 79%
    03:00 +31°C° 0 mm 3 mps 752 mmHg 80%
    04:00 +31°C° 0 mm 3 mps 752 mmHg 81%
    05:00 +31°C° 0 mm 3 mps 752 mmHg 82%
    06:00 +31°C° 0 mm 3 mps 753 mmHg 82%
    07:00 +34°C° 0 mm 3 mps 753 mmHg 73%
    08:00 +36°C° 0 mm 4 mps 754 mmHg 64%
    09:00 +37°C° 0 mm 5 mps 754 mmHg 55%
    10:00 +41°C° 0 mm 5 mps 754 mmHg 48%
    11:00 +43°C° 0 mm 5 mps 753 mmHg 40%
    12:00 +46°C° 0 mm 5 mps 753 mmHg 33%
    13:00 +46°C° 0 mm 5 mps 752 mmHg 32%
    14:00 +46°C° 0 mm 6 mps 752 mmHg 30%
    15:00 +46°C° 0 mm 6 mps 751 mmHg 29%
    16:00 +44°C° 0 mm 7 mps 751 mmHg 37%
    17:00 +41°C° 0 mm 7 mps 750 mmHg 44%
    18:00 +39°C° 0 mm 7 mps 750 mmHg 51%
    19:00 +38°C° 0 mm 7 mps 751 mmHg 58%
    20:00 +35°C° 0 mm 7 mps 751 mmHg 64%
    21:00 +34°C° 0 mm 6 mps 752 mmHg 71%
    22:00 +33°C° 0 mm 6 mps 752 mmHg 72%
    23:00 +33°C° 0 mm 6 mps 752 mmHg 73%

    22 May, Wednesday

    Time Temperature Precipitation Wind Pressure Humidity
    00:00 +33°C° 0 mm 5 mps 752 mmHg 74%
    01:00 +33°C° 0 mm 5 mps 752 mmHg 75%
    02:00 +32°C° 0 mm 4 mps 751 mmHg 76%
    03:00 +32°C° 0 mm 4 mps 751 mmHg 76%
    04:00 +32°C° 0 mm 4 mps 751 mmHg 77%
    05:00 +32°C° 0 mm 5 mps 752 mmHg 78%
    06:00 +32°C° 0 mm 5 mps 752 mmHg 79%
    07:00 +34°C° 0 mm 5 mps 752 mmHg 72%
    08:00 +35°C° 0 mm 6 mps 753 mmHg 64%
    09:00 +38°C° 0 mm 6 mps 753 mmHg 57%
    10:00 +40°C° 0 mm 6 mps 753 mmHg 51%
    11:00 +43°C° 0 mm 7 mps 752 mmHg 44%
    12:00 +45°C° 0 mm 7 mps 752 mmHg 38%
    13:00 +44°C° 0 mm 7 mps 751 mmHg 38%
    14:00 +44°C° 0 mm 7 mps 750 mmHg 38%
    15:00 +44°C° 0 mm 8 mps 750 mmHg 38%
    16:00 +43°C° 0 mm 7 mps 750 mmHg 43%
    17:00 +40°C° 0 mm 7 mps 749 mmHg 48%
    18:00 +38°C° 0 mm 7 mps 749 mmHg 54%
    19:00 +36°C° 0 mm 7 mps 750 mmHg 59%
    20:00 +35°C° 0 mm 7 mps 750 mmHg 64%
    21:00 +33°C° 0 mm 7 mps 751 mmHg 69%
    22:00 +33°C° 0 mm 7 mps 751 mmHg 70%
    23:00 +33°C° 0 mm 7 mps 751 mmHg 71%

    23 May, Thursday

    Time Temperature Precipitation Wind Pressure Humidity
    00:00 +33°C° 0 mm 7 mps 751 mmHg 71%
    01:00 +33°C° 0 mm 6 mps 751 mmHg 72%
    02:00 +32°C° 0 mm 5 mps 751 mmHg 73%
    03:00 +32°C° 0 mm 5 mps 750 mmHg 74%
    04:00 +32°C° 0 mm 5 mps 751 mmHg 75%
    05:00 +32°C° 0 mm 5 mps 751 mmHg 76%
    06:00 +32°C° 0 mm 6 mps 751 mmHg 77%
    07:00 +34°C° 0 mm 6 mps 752 mmHg 70%
    08:00 +36°C° 0 mm 7 mps 752 mmHg 64%
    09:00 +38°C° 0 mm 7 mps 753 mmHg 57%
    10:00 +40°C° 0 mm 7 mps 752 mmHg 52%
    11:00 +41°C° 0 mm 7 mps 752 mmHg 47%
    12:00 +44°C° 0 mm 7 mps 752 mmHg 42%
    13:00 +44°C° 0 mm 8 mps 751 mmHg 42%
    14:00 +43°C° 0 mm 8 mps 750 mmHg 42%
    15:00 +43°C° 0 mm 8 mps 750 mmHg 42%
    16:00 +41°C° 0 mm 8 mps 750 mmHg 48%
    17:00 +39°C° 0 mm 8 mps 749 mmHg 54%
    18:00 +36°C° 0 mm 7 mps 749 mmHg 60%
    19:00 +35°C° 0 mm 7 mps 750 mmHg 63%
    20:00 +34°C° 0 mm 7 mps 751 mmHg 67%
    21:00 +33°C° 0 mm 7 mps 751 mmHg 71%
    22:00 +33°C° 0 mm 6 mps 751 mmHg 71%
    23:00 +33°C° 0 mm 6 mps 751 mmHg 72%

    24 May, Friday

    Time Temperature Precipitation Wind Pressure Humidity
    00:00 +33°C° 0 mm 6 mps 751 mmHg 73%
    01:00 +33°C° 0 mm 5 mps 751 mmHg 73%
    02:00 +33°C° 0 mm 4 mps 751 mmHg 74%
    03:00 +33°C° 0 mm 4 mps 751 mmHg 75%
    04:00 +33°C° 0.1 mm 4 mps 751 mmHg 76%
    05:00 +33°C° 0.1 mm 5 mps 751 mmHg 76%
    06:00 +33°C° 0.1 mm 5 mps 751 mmHg 77%
    07:00 +34°C° 0 mm 6 mps 752 mmHg 70%
    08:00 +36°C° 0 mm 7 mps 752 mmHg 64%
    09:00 +38°C° 0 mm 7 mps 752 mmHg 57%
    10:00 +40°C° 0 mm 8 mps 752 mmHg 52%
    11:00 +41°C° 0 mm 8 mps 752 mmHg 46%
    12:00 +43°C° 0 mm 8 mps 751 mmHg 41%
    13:00 +43°C° 0 mm 8 mps 751 mmHg 41%
    14:00 +43°C° 0 mm 9 mps 750 mmHg 41%
    15:00 +43°C° 0 mm 9 mps 749 mmHg 42%
    16:00 +41°C° 0 mm 8 mps 749 mmHg 47%
    17:00 +39°C° 0 mm 8 mps 748 mmHg 52%
    18:00 +38°C° 0 mm 7 mps 748 mmHg 57%
    19:00 +36°C° 0 mm 7 mps 748 mmHg 62%
    20:00 +35°C° 0 mm 8 mps 749 mmHg 66%
    21:00 +34°C° 0 mm 8 mps 749 mmHg 71%
    22:00 +33°C° 0 mm 7 mps 750 mmHg 72%
    23:00 +33°C° 0 mm 5 mps 750 mmHg 74%
    Show more